Regional Weather Roundup
Issued by NWS

Home | Current Version | Previous Version | Graphics & Text | Print | Product List | Glossary On
Versions: 1 2 3 4 5 6 7 8 9 10 11 12 13 14 15 16 17 18 19 20 21 22 23 24 25 26 27 28 29 30 31 32 33 34 35 36 37 38 39 40 41 42 43 44 45 46 47 48 49 50
000
ASUS43 KMPX 281301
RWRMN
WEATHER ROUNDUP FOR MINNESOTA
NATIONAL WEATHER SERVICE TWIN CITIES/CHANHASSEN MN
800 AM CDT FRI AUG 28 2015


NOTE: "FAIR" INDICATES FEW OR NO CLOUDS BELOW 12,000 FEET WITH NO
SIGNIFICANT WEATHER AND/OR OBSTRUCTIONS TO VISIBILITY. N/A MEANS
CURRENT SKY AND/OR WEATHER CONDITIONS ARE NOT AVAILABLE.

MNZ060>063-068>070-281400-
   Twin Cities Metro

CITY           SKY/WX    TMP DP  RH WIND       PRES   REMARKS
TWIN CITIES    CLOUDY    65  61  87 S9        30.02R
ST PAUL        CLOUDY    64  62  93 SE6       30.02R
CRYSTAL        PTSUNNY   65  62  90 CALM      30.00R
BLAINE         PTSUNNY   64  63  94 SE3       30.01S
LAKEVILLE      RAIN      63  63 100 CALM      30.02S
EDEN PRAIRIE   CLOUDY    67  63  87 E3        30.01R
SOUTH ST PAUL  CLOUDY    64  61  90 CALM      30.02R FOG
LAKE ELMO      FAIR      63  61  94 CALM      30.04R
$$
MNZ001>005-007-008-013>017-022>024-027-028-281400-
   Northwest Minnesota

CITY           SKY/WX    TMP DP  RH WIND       PRES   REMARKS
BEMIDJI        FOG       64  64 100 S7        29.93S VSB 1/2
HALLOCK        MOSUNNY   64  63  94 CALM      29.83S
ROSEAU         HAZE      64  61  88 SW3       29.85R VSB 1
WARROAD        FOG       64  61  88 S6        29.86R VSB 3/4
THIEF RVR FALL MOSUNNY  N/A N/A N/A S9        29.87S
CROOKSTON      MOSUNNY   64  63  94 S13       29.88S
FOSSTON        PTSUNNY   63  63 100 S9        29.92F FOG
DETROIT LAKES  CLOUDY    64  63  94 S8        29.96R FOG
MOORHEAD       CLOUDY    64  63  94 S7        29.94R FOG
PARK RAPIDS    FOG       65  63  93 S5        29.97R VSB 1/4
MAHNOMEN       FOG       64  64  99 S9        29.94R VSB 1/2
$$
MNZ006-009>011-018-025>026-281400-
   North Central Minnesota

CITY           SKY/WX    TMP DP  RH WIND       PRES   REMARKS
BAUDETTE       CLOUDY    63  62  97 SE9       29.85F FOG
FLAG ISLAND    CLOUDY    66  64  94 S14       29.82F FOG
INTL FALLS     PTSUNNY   62  61  96 S3        29.91S FOG
WASKISH        CLOUDY    64  64 100 S3        29.90F FOG
BIG FORK       FOG       64  63  94 CALM      29.94S VSB 1/2
LONGVILLE      FOG       63  63 100 SW6       29.97R VSB 3/4
GRAND RAPIDS     N/A     63  61  94 S6        29.97R
CRANE LAKE     CLOUDY    61  59  94 S2        29.95S
COOK           FOG       61  61 100 CALM      29.95S VSB 1/2
WALKER         CLOUDY    63  62  98 SW7       29.96R FOG
$$
MNZ012-019>021-037-281400-
   Northeast Minnesota

CITY           SKY/WX    TMP DP  RH WIND       PRES   REMARKS
DULUTH         CLOUDY    61  58  90 SW6       29.97F
ELY            CLOUDY    61  59  94 SW5       29.96S FOG
HIBBING        CLOUDY    59  58  96 SE3       29.96S
EVELETH        CLOUDY    59  59 100 S3        29.98S FOG
DULUTH HARBOR  CLOUDY    57  54  88 CALM      29.98S
TWO HARBORS    CLOUDY    63  57  82 CALM      29.96F
SILVER BAY     CLOUDY    61  55  82 CALM      29.96S
GRAND MARAIS     N/A     56  49  77 CALM      29.96S
G MARAIS ARPRT CLOUDY    57  52  82 CALM      29.99S
$$
MNZ029>031-032-039>041-046>048-054>057-064-281400-
   West Central Minnesota

CITY           SKY/WX    TMP DP  RH WIND       PRES   REMARKS
FERGUS FALLS   SUNNY     63  63 100 S10       29.95S
WHEATON        CLOUDY    61  61 100 SE7       29.96F
MORRIS         PTSUNNY   64  63  94 SE5       29.96F FOG
ALEXANDRIA     CLOUDY    64  63  96 SW13      30.00S
ELBOW LAKE     FAIR      62  62  99 S10       29.96F
WADENA         SUNNY     63  63 100 S7        29.96S
GLENWOOD       MOSUNNY   63  63 100 SE5       30.00S FOG
APPLETON       PTSUNNY   63  61  94 SE7       29.98R FOG
BENSON         PTSUNNY   63  61  94 SE5       29.99R
ORTONVILLE     MOSUNNY   63  61  94 SE3       29.96S
MADISON        CLOUDY    63  61  94 E3        29.98R FOG
WILLMAR        PTSUNNY   63  63 100 CALM      30.00F
$$
MNZ033>034-036-042>043-049>051-058-059-281400-
   Central Minnesota

CITY           SKY/WX    TMP DP  RH WIND       PRES   REMARKS
ST CLOUD       PTSUNNY   61  60  97 CALM      30.00S
SAUK CENTRE    PTSUNNY   62  62  99 SE3       30.00S
PAYNESVILLE    PTSUNNY   61  60  97 CALM      30.01R
AITKIN         MOSUNNY   63  57  82 CALM      29.96F
PINE RIVER     CLOUDY    63  63 100 S3        30.00S FOG
BRAINERD       CLOUDY    60  59  96 SW7       29.98S
STAPLES        MOSUNNY   61  59  94 S6        29.98S
LONG PRAIRIE   CLOUDY    61  61 100 S3        30.00S
LITTLE FALLS   PTSUNNY   59  57  94 S5        30.00S
LITCHFIELD     CLOUDY    63  63 100 CALM      30.00F
BUFFALO        PTSUNNY   62  60  91 CALM      30.02R
MAPLE LAKE     PTSUNNY   62  62  99 CALM      30.02R
$$
MNZ037-044-045-052-053-281400-
   East Central Minnesota

CITY           SKY/WX    TMP DP  RH WIND       PRES   REMARKS
PRINCETON      PTSUNNY   64  63  94 S3        30.01S
MORA           PTSUNNY   59  57  94 SW5       30.02R
CAMBRIDGE      PTSUNNY   64  55  72 S6        30.00R
RUSH CITY      PTSUNNY   61  60  95 S7        30.01S
MOOSE LAKE     CLOUDY    59  57  94 SW6       29.97S
HINCKLEY       CLOUDY    59  59 100 S3        30.00S FOG
CLOQUET        PTSUNNY   61  57  88 S7        29.98S
MCGREGOR       MOSUNNY   61  59  94 S3        29.98S
$$
MNZ071>073-080-081-089-090-097-098-281400-
   Southwest Minnesota

CITY           SKY/WX    TMP DP  RH WIND       PRES   REMARKS
MONTEVIDEO     CLOUDY    61  61 100 SE5       30.00R FOG
GRANITE FALLS  CLOUDY    62  61  99 CALM      29.99R
CANBY          CLOUDY    62  61  96 CALM      29.99R FOG
MARSHALL       CLOUDY    64  57  77 SE9       29.97S
REDWOOD FALLS  CLOUDY    65  63  93 SE9       29.96F
OLIVIA         PTSUNNY   61  57  88 CALM      29.97F
PIPESTONE      CLOUDY    64  63  94 SE9       29.95R
WINDOM         LGT RAIN  63  61  94 E5        29.97S
WORTHINGTON    CLOUDY    63  59  88 E9        29.95S
JACKSON        DRIZZLE   63  63 100 E10       29.96S
TRACY          CLOUDY    64  63  96 SE3       29.96F
SLAYTON        CLOUDY    62  62 100 CALM      29.98R
$$
MNZ065>067-074>077-082>085-091>093-281400-
   South Central Minnesota

CITY           SKY/WX    TMP DP  RH WIND       PRES   REMARKS
MANKATO        CLOUDY    63  59  88 SE14      30.02S
NEW ULM        CLOUDY    63  63 100 SE8       29.99S
ST JAMES       CLOUDY    64  64 100 E9        29.99F
FAIRMONT       CLOUDY    63  57  82 E9        29.97F
GLENCOE        LGT RAIN  65  64  97 S3        29.99F
FARIBAULT      LGT RAIN  64  63  94 S8        30.04R
OWATONNA       RAIN      63  61  94 S10G16    30.06R
WASECA         RAIN      63  61  94 MISG      30.06R
ALBERT LEA     RAIN      63  63 100 SE6       30.06S
$$
MNZ078>079-086>088-094>096-281400-
   Southeast Minnesota

CITY           SKY/WX    TMP DP  RH WIND       PRES   REMARKS
ROCHESTER      RAIN      62  60  93 SW16      30.07R FOG
RED WING       LGT RAIN  64  61  88 CALM      30.02S
STANTON        LGT RAIN  64  61  88 CALM      30.03R
DODGE CENTER   RAIN      63  61  94 SW15G21   30.07R
WINONA         CLOUDY    63  59  88 CALM      30.06R
AUSTIN         RAIN      63  61  94 S7        30.07R
PRESTON        LGT RAIN  60  58  92 S8        30.08R
$$
ABBREVIATIONS USED IN REMARKS
   TC - TEMPERATURES IN CELSIUS
  WCI - WIND CHILL INDEX
   HX - HEAT INDEX
  VSB - VISIBILITY
$$


USA.gov is the U.S. government's official web portal to all federal, state and local government web resources and services.